This demonstration page uses our WeatherBlox Daily Observations layout. Learn more.

Hourly Observations for May 6, 2015

Temp ( °F °C ) Dew Point ( °F °C ) Humidity (%) Winds ( mph kmh ) Pressure ( in mb ) Visibility ( mi km ) Precip ( " mm )
12:15 am 00:15 Cloudy 59 15 57 13.8 93 93 SE 22 35 29.8 1009 10 16.0934 0 0
12:35 am 00:35 Cloudy 59 15.1 57 14 93 93 SSE 18 30 29.8 1009 10 16.0934 0 0
12:55 am 00:55 Cloudy 59 15.1 57 14 93 93 SSE 20 31 29.8 1009 10 16.0934 0 0
1:15 am 01:15 Cloudy 59 15.2 57 14 93 93 SSE 18 30 29.77 1008 10 16.0934 0 0
1:35 am 01:35 Cloudy 59 15.2 57 14.1 93 93 SSE 18 30 29.77 1008 10 16.0934 0 0
1:55 am 01:55 Cloudy 59 15.1 57 14 93 93 SSE 20 31 29.77 1008 7 11.26538 0 0
2:15 am 02:15 Cloudy with Light Rain 59 15.1 57 14.1 94 94 SSE 18 30 29.77 1008 7 11.26538 0 0
2:35 am 02:35 Cloudy 59 15.2 58 14.3 94 94 SSE 17 28 29.74 1007 7 11.26538 0 0
2:55 am 02:55 Cloudy with Heavy Rain 59 15.1 58 14.2 94 94 SSE 17 28 29.74 1007 4 6.43736 0.04 1.016
3:15 am 03:15 Cloudy 59 15.2 58 14.3 94 94 SE 18 30 29.74 1007 7 11.26538 0 0
3:35 am 03:35 Cloudy 59 15.1 57 14.1 94 94 SE 21 33 29.74 1007 7 11.26538 0.01 0.254
3:55 am 03:55 Cloudy 59 15.2 57 14.1 93 93 SE 20 31 29.74 1007 7 11.26538 0.01 0.254
4:15 am 04:15 Cloudy 59 15.2 58 14.2 94 94 SE 22 35 29.74 1007 7 11.26538 0 0
4:35 am 04:35 Cloudy 60 15.3 58 14.3 94 94 SE 17 28 29.74 1007 7 11.26538 0 0
4:55 am 04:55 Cloudy 60 15.3 58 14.3 94 94 SSE 18 30 29.74 1007 10 16.0934 0 0
5:15 am 05:15 Cloudy 59 15.2 57 14.1 93 93 SE 17 28 29.74 1007 10 16.0934 0 0
5:35 am 05:35 Cloudy 59 15.2 57 14.1 93 93 SE 18 30 29.71 1006 10 16.0934 0 0
5:55 am 05:55 Cloudy 60 15.3 58 14.2 93 93 SE 14 22 29.71 1006 10 16.0934 0 0
6:15 am 06:15 Cloudy 60 15.3 57 14.1 93 93 SE 14 22 29.71 1006 10 16.0934 0 0
6:35 am 06:35 Cloudy 60 15.3 57 14.1 93 93 SE 14 22 29.71 1006 10 16.0934 0 0
6:55 am 06:55 Cloudy with Light Rain 59 15.1 57 14.1 94 94 SSE 15 24 29.71 1006 4 6.43736 0 0
7:15 am 07:15 Cloudy with Light Rain 59 15.1 57 14 93 93 SSE 15 24 29.71 1006 7 11.26538 0 0
7:35 am 07:35 Cloudy with Light Drizzle 59 15.2 58 14.2 94 94 SSE 14 22 29.71 1006 10 16.0934 0 0
7:55 am 07:55 Cloudy 59 15.2 57 14.1 93 93 SE 15 24 29.71 1006 10 16.0934 0 0
8:15 am 08:15 Cloudy 60 15.3 58 14.2 93 93 SSE 15 24 29.71 1006 10 16.0934 0.01 0.254
8:35 am 08:35 Cloudy 60 15.3 58 14.2 93 93 SSE 15 24 29.71 1006 10 16.0934 0.01 0.254
8:55 am 08:55 Cloudy with Drizzle 59 15.2 58 14.2 94 94 SSE 13 20 29.71 1006 10 16.0934 0.01 0.254
9:15 am 09:15 Cloudy with Light Rain 60 15.5 58 14.5 94 94 SSE 13 20 29.71 1006 10 16.0934 0 0
9:35 am 09:35 Cloudy with Drizzle 60 15.5 58 14.5 94 94 SSE 12 19 29.71 1006 10 16.0934 0.01 0.254
9:55 am 09:55 Cloudy with Light Rain 60 15.8 59 14.8 94 94 SSE 16 26 29.68 1005 10 16.0934 0.01 0.254
10:15 am 10:15 Cloudy 62 16.4 60 15.3 93 93 SSE 17 28 29.68 1005 10 16.0934 0 0
10:35 am 10:35 Cloudy 64 17.6 59 15 85 85 SSE 21 33 29.65 1004 10 16.0934 0 0
10:55 am 10:55 Mostly Cloudy 64 17.5 57 14.1 81 81 SSE 18 30 29.65 1004 10 16.0934 0 0
11:15 am 11:15 Cloudy 63 17 58 14.3 84 84 SSE 20 31 29.65 1004 10 16.0934 0 0
11:35 am 11:35 Cloudy 63 17 58 14.2 84 84 SSE 22 35 29.65 1004 10 16.0934 0 0
11:55 am 11:55 Cloudy 61 16.2 57 13.7 85 85 S 20 31 29.68 1005 10 16.0934 0 0
12:15 pm 12:15 Cloudy with Light Drizzle 60 15.5 57 14.1 91 91 S 18 30 29.71 1006 2.5 4.02335 0 0
12:35 pm 12:35 Cloudy 60 15.8 58 14.2 90 90 S 17 28 29.68 1005 7 11.26538 0 0
12:55 pm 12:55 Cloudy 60 15.8 58 14.2 90 90 S 20 31 29.68 1005 7 11.26538 0 0
1:15 pm 13:15 Cloudy 63 17.2 58 14.6 85 85 SSE 17 28 29.65 1004 10 16.0934 0 0
1:35 pm 13:35 Cloudy 63 17.1 58 14.2 83 83 SSE 17 28 29.65 1004 10 16.0934 0 0
1:55 pm 13:55 Cloudy 65 18.5 57 14 75 75 SSE 17 28 29.62 1003 10 16.0934 0 0
2:15 pm 14:15 Cloudy 66 19.1 57 13.8 72 72 SSE 17 28 29.62 1003 10 16.0934 0 0
2:35 pm 14:35 Cloudy 68 19.9 57 13.8 68 68 S 16 26 29.56 1001 10 16.0934 0 0
2:55 pm 14:55 Mostly Cloudy 70 20.9 57 14 65 65 S 13 20 29.56 1001 10 16.0934 0 0
3:15 pm 15:15 Mostly Cloudy with Light Rain 69 20.8 57 13.7 64 64 S 14 22 29.53 1000 10 16.0934 0 0
3:35 pm 15:35 Mostly Cloudy with Nearby Thunderstorms 70 21.1 56 13.5 62 62 S 15 24 29.53 1000 10 16.0934 0 0
3:55 pm 15:55 Cloudy with Thunderstorms 69 20.6 59 15.2 71 71 ESE 17 28 29.53 1000 10 16.0934 0 0
4:15 pm 16:15 Cloudy 64 18 56 13.6 76 76 SE 24 39 29.56 1001 10 16.0934 0 0
4:35 pm 16:35 Cloudy 61 16.3 58 14.5 89 89 SE 18 30 29.56 1001 7 11.26538 0.01 0.254
4:55 pm 16:55 Cloudy with Nearby Thunderstorms 63 17 59 15 88 88 ESE 15 24 29.56 1001 10 16.0934 0.01 0.254
5:15 pm 17:15 Mostly Cloudy 63 17.1 60 15.5 90 90 SE 18 30 29.53 1000 10 16.0934 0 0
5:35 pm 17:35 Mostly Cloudy 63 17.2 59 14.8 86 86 SE 17 28 29.53 1000 10 16.0934 0 0
5:55 pm 17:55 Mostly Cloudy with Light Rain 63 17.1 59 14.9 87 87 SE 12 19 29.53 1000 10 16.0934 0 0
6:15 pm 18:15 Partly Cloudy 64 17.8 59 15.1 84 84 SE 15 24 29.53 1000 10 16.0934 0 0
6:35 pm 18:35 Mostly Cloudy 64 18 59 15 83 83 SE 14 22 29.53 1000 10 16.0934 0 0
6:55 pm 18:55 Partly Cloudy 65 18.6 59 15.2 81 81 SE 15 24 29.53 1000 10 16.0934 0 0
7:15 pm 19:15 Mostly Cloudy 64 17.9 58 14.7 82 82 SE 10 17 29.53 1000 10 16.0934 0 0
7:35 pm 19:35 Cloudy 63 17.2 58 14.7 85 85 SE 12 19 29.53 1000 10 16.0934 0 0
7:55 pm 19:55 Cloudy 62 16.5 58 14.4 87 87 SE 13 20 29.53 1000 10 16.0934 0 0
8:15 pm 20:15 Cloudy 61 16.3 58 14.3 88 88 SE 8 13 29.53 1000 10 16.0934 0 0
8:35 pm 20:35 Cloudy 61 16.1 58 14.2 89 89 SE 7 11 29.53 1000 10 16.0934 0 0
8:55 pm 20:55 Mostly Cloudy 60 15.8 58 14.3 91 91 SE 7 11 29.53 1000 10 16.0934 0 0
9:15 pm 21:15 Partly Cloudy 59 15.2 57 14 93 93 SE 6 9 29.56 1001 10 16.0934 0 0
9:35 pm 21:35 Mostly Cloudy 59 15.1 57 14 93 93 SE 5 7 29.56 1001 10 16.0934 0 0
9:55 pm 21:55 Cloudy 59 15.2 57 14.1 93 93 ESE 5 7 29.59 1002 10 16.0934 0 0
10:15 pm 22:15 Cloudy 59 15.1 57 14.1 94 94 ESE 10 17 29.59 1002 10 16.0934 0 0
10:35 pm 22:35 Mostly Cloudy with Nearby Thunderstorms 59 15.1 57 14.1 94 94 SE 8 13 29.59 1002 10 16.0934 0 0
10:55 pm 22:55 Partly Cloudy with Nearby Thunderstorms 59 15.1 57 14.1 94 94 SE 5 7 29.59 1002 10 16.0934 0 0
11:15 pm 23:15 Clear 59 15 57 14 94 94 SSE 8 13 29.59 1002 10 16.0934 0 0
11:35 pm 23:35 Clear 59 15 56 13.6 91 91 S 6 9 29.59 1002 10 16.0934 0 0
11:55 pm 23:55 Clear 59 15 56 13.3 90 90 SSE 5 7 29.59 1002 10 16.0934 0 0

Powered by AerisWeather